Seago Piraeus — OXVD2 — position and weather

sailwx.info

Track history (hours):
 
Tides and Currents Weather Stations Pressure Air Temp Water Temp Dewpoint Dewpoint Depression Visibility Wind Speed Wind Dir Waves Ship Positions

Seago Piraeus

Last reported at 2014-Jul-31 19:33 UTC. Time now 2014-Jul-31 19:35 UTC.
Position N 51°57' E 001°18'.

Length 294 m; draft 12 m.

Type: Ship (hazmat cat A). MMSI: 219117000.

Date/timePositionNaut miles runAvg speedWind from/ knotsBaromVisibWave heightAir tempDewpointWater temp
2014-Jul-31 19:33N 51°57' E 001°18'0 0.0
2014-Jul-31 18:33N 51°57' E 001°18'0 0.0
2014-Jul-31 17:32N 51°57' E 001°18'0 0.0
2014-Jul-31 16:32N 51°57' E 001°18'0 0.0
2014-Jul-31 15:32N 51°57' E 001°18'0 0.0
2014-Jul-31 14:32N 51°57' E 001°18'0 0.0
2014-Jul-31 13:32N 51°57' E 001°18'0 0.0
2014-Jul-31 12:32N 51°57' E 001°18'0 0.0
2014-Jul-31 11:32N 51°57' E 001°18'0 0.0
2014-Jul-31 10:32N 51°57' E 001°18'0 0.0
2014-Jul-31 09:32N 51°57' E 001°18'0 0.0
2014-Jul-31 08:32N 51°57' E 001°18'0 0.0
2014-Jul-31 07:32N 51°57' E 001°18'0 0.0
2014-Jul-31 06:32N 51°57' E 001°18'0 0.0
2014-Jul-31 05:32N 51°57' E 001°18'0 0.0
2014-Jul-31 04:32N 51°57' E 001°18'0 0.0
2014-Jul-31 03:32N 51°57' E 001°18'0 0.0
2014-Jul-31 02:32N 51°57' E 001°18'0 0.0
2014-Jul-31 01:32N 51°57' E 001°18'0 0.0
2014-Jul-31 00:33N 51°57' E 001°18'2 2.3
2014-Jul-30 23:33N 51°55' E 001°20'1211.6
2014-Jul-30 22:33N 51°51' E 001°37'4 4.4
2014-Jul-30 21:33N 51°54' E 001°44'4 4.5
2014-Jul-30 20:33N 51°50' E 001°48'5 4.9
2014-Jul-30 19:33N 51°45' E 001°49'6 5.9
2014-Jul-30 18:34N 51°39' E 001°50'6 6.0
2014-Jul-30 17:33N 51°33' E 001°51'2 2.0
2014-Jul-30 16:33N 51°32' E 001°49'3 2.7
2014-Jul-30 15:33N 51°30' E 001°47'7 7.0
2014-Jul-30 14:33N 51°23' E 001°44'9 8.9
2014-Jul-30 13:34N 51°14' E 001°40'8 7.9
2014-Jul-30 12:33N 51°07' E 001°43'1313.2
2014-Jul-30 11:33N 50°57' E 001°28'1212.0
2014-Jul-30 10:32N 50°46' E 001°22'2611.4
2014-Jul-30 08:15N 50°27' E 000°54'912.4
2014-Jul-30 07:33N 50°25' E 000°40'1212.0
2014-Jul-30 06:33N 50°22' E 000°22'5711.4
2014-Jul-30 01:33N 50°08' W 001°04'1313.1
2014-Jul-30 00:33N 50°04' W 001°24'1614.7
2014-Jul-29 23:29N 50°00' W 001°47'  
2014-Jul-27 15:30N 40°06' W 009°50'1613.5
2014-Jul-27 14:21N 39°50' W 009°51'2913.3
2014-Jul-27 12:11N 39°21' W 009°51'1213.4
2014-Jul-27 11:19N 39°10' W 009°51'1013.3
2014-Jul-27 10:33N 38°59' W 009°51'1313.5
2014-Jul-27 09:32N 38°46' W 009°52'1313.2
2014-Jul-27 08:33N 38°33' W 009°49'1413.6
2014-Jul-27 07:32N 38°20' W 009°44'1313.6
2014-Jul-27 06:33N 38°06' W 009°41'1313.3
2014-Jul-27 05:33N 37°53' W 009°37'1313.1
2014-Jul-27 04:33N 37°41' W 009°34'1313.4
2014-Jul-27 03:33N 37°28' W 009°30'1413.8
2014-Jul-27 02:33N 37°14' W 009°27'1413.2
2014-Jul-27 01:32N 37°01' W 009°23'1313.1
2014-Jul-27 00:33N 36°50' W 009°16'1413.3
2014-Jul-26 23:32N 36°42' W 009°01'1313.5
2014-Jul-26 22:33N 36°38' W 008°45'1313.5
2014-Jul-26 21:33N 36°34' W 008°30'1413.7
2014-Jul-26 20:31N 36°29' W 008°13'1313.7
2014-Jul-26 19:34N 36°25' W 007°58'1413.7
2014-Jul-26 18:34N 36°21' W 007°41'1313.4
2014-Jul-26 17:33N 36°17' W 007°25'1313.3
2014-Jul-26 16:33N 36°12' W 007°10'1413.2
2014-Jul-26 15:31N 36°08' W 006°54'7612.6
2014-Jul-26 09:28N 36°02' W 005°20'16013.2
2014-Jul-25 21:17N 36°31' W 002°04'5914.2
2014-Jul-25 17:08N 37°11' W 001°10'1113.9
2014-Jul-25 16:21N 37°18' W 000°59'1114.1
2014-Jul-25 15:33N 37°25' W 000°48'1414.4
2014-Jul-25 14:33N 37°34' W 000°34'1414.2
2014-Jul-25 13:33N 37°45' W 000°24'1413.8
2014-Jul-25 12:33N 37°57' W 000°14'8311.6
2014-Jul-25 05:25N 39°20' W 000°09'1011.6
2014-Jul-25 04:33N 39°26' W 000°19'0 0.1
2014-Jul-25 03:33N 39°26' W 000°19'0 0.0
2014-Jul-25 02:33N 39°26' W 000°19'0 0.0
2014-Jul-25 01:30N 39°26' W 000°19'0 0.0
2014-Jul-25 00:30N 39°26' W 000°19'0 0.0
2014-Jul-24 23:33N 39°26' W 000°19'0 0.0
2014-Jul-24 22:27N 39°26' W 000°19'0 0.0
2014-Jul-24 21:30N 39°26' W 000°19'0 0.0
2014-Jul-24 20:30N 39°26' W 000°19'0 0.0
2014-Jul-24 18:09N 39°26' W 000°19'0 0.0
2014-Jul-24 17:09N 39°26' W 000°19'0 0.0
2014-Jul-24 16:33N 39°26' W 000°19'0 0.0
2014-Jul-24 15:33N 39°26' W 000°19'0 0.0
2014-Jul-24 14:33N 39°26' W 000°19'0 0.0
2014-Jul-24 13:33N 39°26' W 000°19'4 3.8
2014-Jul-24 12:33N 39°26' W 000°15'2 2.0
2014-Jul-24 11:34N 39°24' W 000°13'4411.0
2014-Jul-24 07:31N 39°18' E 000°44'1414.9
2014-Jul-24 06:33N 39°16' E 001°02'1514.8
2014-Jul-24 05:33N 39°13' E 001°21'1514.7
2014-Jul-24 04:33N 39°11' E 001°40'1514.7
2014-Jul-24 03:33N 39°08' E 001°59'1515.0
2014-Jul-24 02:33N 39°05' E 002°17'1515.4
2014-Jul-24 01:33N 39°01' E 002°37'1515.3
2014-Jul-24 00:33N 38°57' E 002°56'1515.3
2014-Jul-23 23:33N 38°54' E 003°15'1616.1
2014-Jul-23 22:33N 38°50' E 003°35'1414.5
2014-Jul-23 21:33N 38°47' E 003°53'1515.4
2014-Jul-23 20:33N 38°43' E 004°12'3715.6
2014-Jul-23 18:13N 38°34' E 004°58'1216.7
2014-Jul-23 17:29N 38°31' E 005°13'1515.3
2014-Jul-23 16:32N 38°28' E 005°31'38713.8
2014-Jul-22 12:33N 36°48' E 013°22'1514.0
2014-Jul-22 11:27N 36°43' E 013°41'1314.3
2014-Jul-22 10:33N 36°40' E 013°56'1414.0
2014-Jul-22 09:33N 36°36' E 014°13'1414.0
2014-Jul-22 08:33N 36°31' E 014°29'  
Track history (hours):
 
Tides and Currents Weather Stations Pressure Air Temp Water Temp Dewpoint Dewpoint Depression Visibility Wind Speed Wind Dir Waves Ship Positions

Seago Piraeus

Last reported at 2014-Jul-31 19:33 UTC. Time now 2014-Jul-31 19:35 UTC.
Position N 51°57' E 001°18'.

Length 294 m; draft 12 m.

Type: Ship (hazmat cat A). MMSI: 219117000.

Date/timePositionNaut miles runAvg speedWind from/ knotsBaromVisibWave heightAir tempDewpointWater temp
2014-Jul-31 19:33N 51°57' E 001°18'0 0.0
2014-Jul-31 18:33N 51°57' E 001°18'0 0.0
2014-Jul-31 17:32N 51°57' E 001°18'0 0.0
2014-Jul-31 16:32N 51°57' E 001°18'0 0.0
2014-Jul-31 15:32N 51°57' E 001°18'0 0.0
2014-Jul-31 14:32N 51°57' E 001°18'0 0.0
2014-Jul-31 13:32N 51°57' E 001°18'0 0.0
2014-Jul-31 12:32N 51°57' E 001°18'0 0.0
2014-Jul-31 11:32N 51°57' E 001°18'0 0.0
2014-Jul-31 10:32N 51°57' E 001°18'0 0.0
2014-Jul-31 09:32N 51°57' E 001°18'0 0.0
2014-Jul-31 08:32N 51°57' E 001°18'0 0.0
2014-Jul-31 07:32N 51°57' E 001°18'0 0.0
2014-Jul-31 06:32N 51°57' E 001°18'0 0.0
2014-Jul-31 05:32N 51°57' E 001°18'0 0.0
2014-Jul-31 04:32N 51°57' E 001°18'0 0.0
2014-Jul-31 03:32N 51°57' E 001°18'0 0.0
2014-Jul-31 02:32N 51°57' E 001°18'0 0.0
2014-Jul-31 01:32N 51°57' E 001°18'0 0.0
2014-Jul-31 00:33N 51°57' E 001°18'2 2.3
2014-Jul-30 23:33N 51°55' E 001°20'1211.6
2014-Jul-30 22:33N 51°51' E 001°37'4 4.4
2014-Jul-30 21:33N 51°54' E 001°44'4 4.5
2014-Jul-30 20:33N 51°50' E 001°48'5 4.9
2014-Jul-30 19:33N 51°45' E 001°49'6 5.9
2014-Jul-30 18:34N 51°39' E 001°50'6 6.0
2014-Jul-30 17:33N 51°33' E 001°51'2 2.0
2014-Jul-30 16:33N 51°32' E 001°49'3 2.7
2014-Jul-30 15:33N 51°30' E 001°47'7 7.0
2014-Jul-30 14:33N 51°23' E 001°44'9 8.9
2014-Jul-30 13:34N 51°14' E 001°40'8 7.9
2014-Jul-30 12:33N 51°07' E 001°43'1313.2
2014-Jul-30 11:33N 50°57' E 001°28'1212.0
2014-Jul-30 10:32N 50°46' E 001°22'2611.4
2014-Jul-30 08:15N 50°27' E 000°54'912.4
2014-Jul-30 07:33N 50°25' E 000°40'1212.0
2014-Jul-30 06:33N 50°22' E 000°22'5711.4
2014-Jul-30 01:33N 50°08' W 001°04'1313.1
2014-Jul-30 00:33N 50°04' W 001°24'1614.7
2014-Jul-29 23:29N 50°00' W 001°47'  
2014-Jul-27 15:30N 40°06' W 009°50'1613.5
2014-Jul-27 14:21N 39°50' W 009°51'2913.3
2014-Jul-27 12:11N 39°21' W 009°51'1213.4
2014-Jul-27 11:19N 39°10' W 009°51'1013.3
2014-Jul-27 10:33N 38°59' W 009°51'1313.5
2014-Jul-27 09:32N 38°46' W 009°52'1313.2
2014-Jul-27 08:33N 38°33' W 009°49'1413.6
2014-Jul-27 07:32N 38°20' W 009°44'1313.6
2014-Jul-27 06:33N 38°06' W 009°41'1313.3
2014-Jul-27 05:33N 37°53' W 009°37'1313.1
2014-Jul-27 04:33N 37°41' W 009°34'1313.4
2014-Jul-27 03:33N 37°28' W 009°30'1413.8
2014-Jul-27 02:33N 37°14' W 009°27'1413.2
2014-Jul-27 01:32N 37°01' W 009°23'1313.1
2014-Jul-27 00:33N 36°50' W 009°16'1413.3
2014-Jul-26 23:32N 36°42' W 009°01'1313.5
2014-Jul-26 22:33N 36°38' W 008°45'1313.5
2014-Jul-26 21:33N 36°34' W 008°30'1413.7
2014-Jul-26 20:31N 36°29' W 008°13'1313.7
2014-Jul-26 19:34N 36°25' W 007°58'1413.7
2014-Jul-26 18:34N 36°21' W 007°41'1313.4
2014-Jul-26 17:33N 36°17' W 007°25'1313.3
2014-Jul-26 16:33N 36°12' W 007°10'1413.2
2014-Jul-26 15:31N 36°08' W 006°54'7612.6
2014-Jul-26 09:28N 36°02' W 005°20'16013.2
2014-Jul-25 21:17N 36°31' W 002°04'5914.2
2014-Jul-25 17:08N 37°11' W 001°10'1113.9
2014-Jul-25 16:21N 37°18' W 000°59'1114.1
2014-Jul-25 15:33N 37°25' W 000°48'1414.4
2014-Jul-25 14:33N 37°34' W 000°34'1414.2
2014-Jul-25 13:33N 37°45' W 000°24'1413.8
2014-Jul-25 12:33N 37°57' W 000°14'8311.6
2014-Jul-25 05:25N 39°20' W 000°09'1011.6
2014-Jul-25 04:33N 39°26' W 000°19'0 0.1
2014-Jul-25 03:33N 39°26' W 000°19'0 0.0
2014-Jul-25 02:33N 39°26' W 000°19'0 0.0
2014-Jul-25 01:30N 39°26' W 000°19'0 0.0
2014-Jul-25 00:30N 39°26' W 000°19'0 0.0
2014-Jul-24 23:33N 39°26' W 000°19'0 0.0
2014-Jul-24 22:27N 39°26' W 000°19'0 0.0
2014-Jul-24 21:30N 39°26' W 000°19'0 0.0
2014-Jul-24 20:30N 39°26' W 000°19'0 0.0
2014-Jul-24 18:09N 39°26' W 000°19'0 0.0
2014-Jul-24 17:09N 39°26' W 000°19'0 0.0
2014-Jul-24 16:33N 39°26' W 000°19'0 0.0
2014-Jul-24 15:33N 39°26' W 000°19'0 0.0
2014-Jul-24 14:33N 39°26' W 000°19'0 0.0
2014-Jul-24 13:33N 39°26' W 000°19'4 3.8
2014-Jul-24 12:33N 39°26' W 000°15'2 2.0
2014-Jul-24 11:34N 39°24' W 000°13'4411.0
2014-Jul-24 07:31N 39°18' E 000°44'1414.9
2014-Jul-24 06:33N 39°16' E 001°02'1514.8
2014-Jul-24 05:33N 39°13' E 001°21'1514.7
2014-Jul-24 04:33N 39°11' E 001°40'1514.7
2014-Jul-24 03:33N 39°08' E 001°59'1515.0
2014-Jul-24 02:33N 39°05' E 002°17'1515.4
2014-Jul-24 01:33N 39°01' E 002°37'1515.3
2014-Jul-24 00:33N 38°57' E 002°56'1515.3
2014-Jul-23 23:33N 38°54' E 003°15'1616.1
2014-Jul-23 22:33N 38°50' E 003°35'1414.5
2014-Jul-23 21:33N 38°47' E 003°53'1515.4
2014-Jul-23 20:33N 38°43' E 004°12'3715.6
2014-Jul-23 18:13N 38°34' E 004°58'1216.7
2014-Jul-23 17:29N 38°31' E 005°13'1515.3
2014-Jul-23 16:32N 38°28' E 005°31'38713.8
2014-Jul-22 12:33N 36°48' E 013°22'1514.0
2014-Jul-22 11:27N 36°43' E 013°41'1314.3
2014-Jul-22 10:33N 36°40' E 013°56'1414.0
2014-Jul-22 09:33N 36°36' E 014°13'1414.0
2014-Jul-22 08:33N 36°31' E 014°29'  

Dump ship's entire track history